STARLINK-35509, 66199

Orbit data source: Space-Track

STARLINK-35509, 66199 is a payload satellite owned by SpaceX/Seattle (US) in LEO that was launched on Sun, 26 Oct 2025 UTC via an FALCON 9 launch vehicle from the Air Force Eastern Test Range (AFETR). Payload-class satellites include a variety of spacecraft equipped with specific instruments for various scientific and technological missions. These include communications satellites like Starlink; space stations such as the ISS; scientific satellites like the Hubble; Earth observation satellites from companies like Planet Labs, Umbra, and HawkEye 360; GPS; miniature CubeSats for education and research; and military/defense satellites.

Loading next visibility...
Identifier
66199, 2025-243Y
Orbit
LEO
Country
Flag of USUS
Related business
Manufacturer
SpaceX/Seattle
Mission
Operational Commercial Communications
Bus & Motor
STARLINK V2MO, Unknown motor
Mass
575 kg wet, ~530 kg dry
Launch date (UTC)
2025-10-26 (4 months ago)
Launch vehicle
FALCON 9
Launch site
Air Force Eastern Test Range (AFETR)
Object type
Payload
Rocket body
Debris
Shape & HBR
Box + 2 Pan, 17.7 m
Radar Cross Section
36.964 m²

Expand to show TLE details & history
Last TLE update: 9 hours ago

TLE from 9 hours ago
0 STARLINK-35509
1 66199U 25243Y   26061.75312581  .00018037  00000-0  61967-3 0  9995
2 66199  53.1567 277.3344 0000879  73.2989 286.8108 15.30197998 19591
Epoch: 2026-03-02T18:04Z
TLE epoch observation values (Epoch: 2026-03-02T18:04:30.069Z)
Latitude
-0.00006°
Longitude
-154.33295°
Altitude
475.946 km
Speed
7.629 km/s
True Right ascension
18h 29m 20s
True Declination
0° 00' 00"
Sunlit
Object was in daylight at epoch
Visualization orbit readout
Latitude
Unknown
Longitude
Unknown
Altitude
Unknown
Speed
Unknown
Apparent Right ascension
Unknown
Apparent Declination
Unknown
Sunlit
N/A
Visualization observer readout
Local Sidereal Time
07:11:07
Azimuth
Unknown
Elevation
Unknown
Doppler factor
Unknown
Orbital elements
Apogee altitude
476.08 km
Perigee altitude
474.876 km
Semi-major axis
6,853.615 km
Eccentricity
0.00009
Inclination
53.1567°
RAAN
277.3344°
Arg. of periapsis
73.2989°
True anomaly
286.80116°
Mean anomaly
286.8108°
Eccentric anomaly
286.80598°
Mean motion
3.82528 °/min
Orbital period
94.11 mins
BSTAR
0.00061967
Loading maneuver chart data...
Computing Atmospheric mass density...
Loading historical data...
Loading historical data...
Loading historical data...
Loading historical data...
Loading historical data...
Loading historical data...
Loading historical data...

Documentation

Showing up to 5 results
|